{"data":{"norad_id":59837,"epoch":"2026-09-21T10:29:40.632576Z","epoch_age_seconds":93490,"freshness":"FRESH","line1":"1 59837U 24097C   26264.43727584  .00000910  00000+0  42575-4 0  9990","line2":"2 59837  43.0015 248.9031 0001197 267.5153  92.5561 15.27580721131855","mean_motion":15.27580721,"eccentricity":0.0001197,"inclination_deg":43.0015,"raan_deg":248.9031,"arg_perigee_deg":267.5153,"mean_anomaly_deg":92.5561,"bstar":4.2575e-5,"rev_number":13185,"period_min":94.266704220863,"perigee_km":482.22565338985,"apogee_km":483.86822082439,"semimajor_km":6861.1839371071,"source":"CELESTRAK","updated_at":"2026-09-22T09:00:49.076266Z"}}